Flag for Finland Weather past 2 weeks in Jyväskylä, Finland

Now
37 °F

Light rain. Low clouds.


Feels Like: 29 °F
Forecast: 31 / 38 °F
Wind: 14 mph from South

Location: Jyvaskyla Airport

Current Time: Mar 28, 2015 at 3:11:34 PM

Latest Report: Mar 28, 2015 at 2:20 PM


Visibility: 4 mi

Pressure: 29.77 "Hg

Humidity: 93%

Dew point: 36 °F

Location of JyväskyläLocation

Historic Weather in Jyväskylä — Graph

°F

Jyväskylä temperature yesterday

Maximum temperature yesterday: 39 °F (at 2:50 PM)
Minimum temperature yesterday: 25 °F (at 12:20 AM)
Average temperature yesterday: 32 °F

Past Weeks' High & Low Weather Summary

 TemperatureHumidityPressure
High50 °F (Mar 17, 3:50 PM)100% (Mar 14, 2:50 AM)31.04 "Hg (Mar 14, 2:50 AM)
Low5 °F (Mar 26, 5:50 AM)25% (Mar 17, 4:20 PM)29.09 "Hg (Mar 24, 2:50 AM)
Average29 °F71%30.26 "Hg
* Reported Mar 13 1:20 PM — Mar 28 1:50 PM, Jyväskylä, Weather by CustomWeather, © 2015

Note: Actual official high and low records may vary slightly from our data, if they occured in-between our weather recording intervals... More about our weather records

Advertising

Jyväskylä weather history for previous 24 hours

 ConditionsComfort  
Time TempWeatherWind HumidityBarometerVisibility
1:50 PM
Sat, Mar 28
37 °FLight rain. Overcast.10 mph93%29.77 "Hg4 mi
1:20 PM39 °FLight rain. Overcast.10 mph81%29.77 "HgN/A
12:50 PM39 °FScattered showers. Overcast.12 mph81%29.77 "HgN/A
12:20 PM39 °FOvercast.9 mph81%29.77 "HgN/A
11:50 AM39 °FOvercast.10 mph81%29.77 "HgN/A
11:20 AM39 °FOvercast.13 mph81%29.77 "HgN/A
10:50 AM39 °FPartly sunny.13 mph81%29.77 "HgN/A
10:20 AM37 °FPartly sunny.16 mph93%29.77 "HgN/A
9:50 AM37 °FMore clouds than sun.12 mph93%29.77 "HgN/A
9:20 AM36 °FSprinkles. Low clouds.9 mph100%29.80 "Hg6 mi
8:50 AM37 °FScattered showers. Overcast.14 mph87%29.80 "HgN/A
8:20 AM37 °FScattered showers. Mostly cloudy.13 mph87%29.80 "HgN/A
7:50 AM36 °FLight rain. Overcast.13 mph93%29.80 "HgN/A
7:20 AM36 °FOvercast.13 mph93%29.80 "HgN/A
6:50 AM36 °FOvercast.13 mph93%29.83 "HgN/A
6:20 AM36 °FLight rain. Overcast.13 mph93%29.83 "Hg5 mi
5:20 AM36 °FOvercast.14 mph93%29.86 "HgN/A
4:50 AM36 °FOvercast.13 mph93%29.86 "HgN/A
4:20 AM36 °FOvercast.12 mph93%29.86 "HgN/A
3:50 AM36 °FSprinkles. Overcast.10 mph93%29.89 "HgN/A
3:20 AM36 °FOvercast.10 mph93%29.89 "HgN/A
2:50 AM36 °FOvercast.10 mph93%29.89 "HgN/A
2:20 AM36 °FOvercast.13 mph93%29.92 "HgN/A
1:50 AM36 °FOvercast.12 mph93%29.92 "HgN/A
1:20 AM36 °FOvercast.12 mph93%29.92 "HgN/A
12:50 AM36 °FOvercast.9 mph87%29.92 "HgN/A
12:20 AM34 °FOvercast.10 mph93%29.92 "HgN/A
11:50 PM
Fri, Mar 27
34 °FOvercast.12 mph93%29.95 "HgN/A
11:20 PM34 °FOvercast.14 mph93%29.95 "HgN/A
10:50 PM34 °FLight rain. Overcast.14 mph93%29.95 "HgN/A
10:20 PM32 °FLight rain. Overcast.15 mph100%29.95 "Hg6 mi
9:50 PM32 °FLight mixture of precip. Overcast.15 mph93%29.98 "Hg3 mi
9:20 PM32 °FLight snow. Overcast.17 mph93%29.98 "Hg1 mi
8:50 PM32 °FLight snow. Overcast.16 mph87%29.98 "Hg3 mi
8:20 PM32 °FLight mixture of precip. Overcast.16 mph87%29.98 "Hg4 mi
7:50 PM34 °FLight snow. Mostly cloudy.22 mph75%29.98 "HgN/A
7:20 PM36 °FOvercast.17 mph60%29.98 "HgN/A
6:50 PM36 °FPartly cloudy.18 mph60%29.98 "HgN/A
6:20 PM36 °FBroken clouds.18 mph60%29.98 "HgN/A
5:50 PM37 °FPartly sunny.18 mph56%30.01 "HgN/A
5:20 PM37 °FSunny.22 mph56%30.01 "Hg10 mi
4:50 PM37 °FSunny.20 mph56%30.01 "Hg10 mi
4:20 PM37 °FSunny.23 mph56%30.01 "Hg10 mi
3:50 PM37 °FSunny.23 mph56%30.01 "Hg10 mi
3:20 PM39 °FSunny.22 mph52%30.04 "Hg10 mi
Weather by CustomWeather, © 2015

See weather overviewHow to use our weather pages